OPS 4682 DEB, 18964

Orbit data source: Space-Track

OPS 4682 DEB, 18964 is space debris in LEO originally from a launch on Sat, 03 Apr 1965 UTC launched from the Air Force Western Test Range (AFWTR). Debris objects in space refer to the collection of defunct objects orbiting the Earth. Examples of debris include non-operational satellites, rocket bodies, and fragments generated from explosions, collisions, or faulty payload assembly.

Loading next visibility...
Identifier
18964, 1965-027AM
Orbit
LEO
Last TLE update
2 days ago
Origin
Manufacturer
Unknown
Mission
Spacecraft
Bus & Motor
Unknown
Mass
Unknown
Launch date (UTC)
1965-04-03 (60 years ago)
Launch vehicle
Unknown
Launch site
Air Force Western Test Range (AFWTR)
Object type
Payload
Rocket body
Debris
Shape & HBR
Unknown
Radar Cross Section
Small (<0.1 m²)

Expand to show TLE details & history

TLE from 2 days ago
0 OPS 4682 DEB
1 18964U 65027AM  25127.06305579  .00000009  00000-0  36433-5 0  9993
2 18964  90.2463 350.8182 0033101  93.6927  66.2751 12.97455557802798
Epoch: 2025-05-07T01:30Z
Definitive object data (Epoch: 2025-05-07T01:30:48.02Z)
Latitude
19.68356°
Longitude
-76.9475°
Altitude
1,264.413 km
Speed
7.23 km/s
True Right ascension
11h 23m 37s
True Declination
19° 34' 55"
Sunlit
Object was in daylight at TLE epoch
Visualization TLE readout
Latitude
-84.87416°
Longitude
-79.71891°
Altitude
1,326.059 km
Speed
7.182 km/s
Apparent Right ascension
02h 25m 22s
Apparent Declination
-69° 22' 38"
Sunlit
Object is in daylight
Visualization observer readout
Local Sidereal Time
14:01:15
Azimuth
184.292° SSW
Elevation
-60.365°
Doppler factor
1
Orbital elements
Apogee altitude
1,294.516 km
Perigee altitude
1,243.889 km
Semi-major axis
7,647.34 km
Eccentricity
0.0033101
Inclination
90.2463°
RAAN
350.8182°
Arg. of periapsis
93.6927°
True anomaly
66.62293°
Mean anomaly
66.2751°
Eccentric anomaly
66.44896°
Mean motion
3.24547 °/min
BSTAR
0.0000036433
Orbital period
110.92 mins
Loading maneuver chart data...
Loading SW <> Apogee altitude chart data...
Loading historical data...
Loading historical data...
Loading historical data...
Loading historical data...
Loading historical data...
Loading historical data...
Loading historical data...

OPS 4682 DEB Visibility forecast

Observer location: undefined°, undefined°

Span
Click to sort rows by Start time (UTC) header in descending order
Start Az.
Max El. time (UTC)
Max El. Az.
Max El.
End time (UTC)
End Az.
11 mins2025-05-09 13:53:31.131Z127.979° SE2025-05-09 13:59:31.131Z70.023° E25.887°2025-05-09 14:04:31.131Z22.62° NE
13 mins2025-05-09 15:43:31.131Z200.853° SSW2025-05-09 15:49:31.131Z272.869° WNW38.088°2025-05-09 15:56:31.131Z347.104° N
8 mins2025-05-10 01:31:31.131Z44.742° NE2025-05-10 01:35:31.131Z82.495° E18.503°2025-05-10 01:39:31.131Z117.289° SE
13 mins2025-05-10 03:20:31.131Z357.143° N2025-05-10 03:26:31.131Z272.243° WNW43.805°2025-05-10 03:33:31.131Z193.419° SSW
|